星链-34133 (STARLINK-34133)

导读

STARLINK-34133是美国于2025年5月24日发射的星链卫星,隶属于SpaceX公司的星链项目,该项目旨在构建全球卫星互联网星座,为全球各地用户提供高速低延迟的宽带互联网服务,特别是覆盖地面网络难以通达的偏远区域,进一步拓展星链星座的全球服务覆盖范围与网络能力。

Basic Information
目录编号:
64143
目录名称:
STARLINK-34133
国际标识:
2025-111W
轨道中心:
EARTH
卫星名称:
星链-34133
卫星全名:
星链-34133 (STARLINK-34133)
卫星状态:
在轨 (已飞行475 天)
发射日期:
2025-05-24 UTC
国别 :
美国 (US)
星等 :
--
This satellite is enrolled in the Space Conjunction Data Service (SCDS) and the current flight risk assessment level is: High Risk
Orbit Information
数据来源 国际轨道数据
星历时间: 2026-09-11T23:06:17+0800
5小时前
查看轨道信息
半长轴: 6861.188km
偏心率: 0.0001146
轨道倾角: 43.000°
近地点辐角 285.800°
升交点赤经 107.505°
平近点角 74.273°
近地点: 482.264km
远地点: 483.838km
周期: 94.267分钟
每日圈数: 15.275795
Detailed Information
固有亮度:
5
最大亮度:
2.5
卫星平台:
Starlink V1.0
覆盖范围:
全球
运营商:
太空探索技术公司
运营商所在国:
美国
制造商(研发单位):
太空探索技术公司
制造商所在国:
美国
使用方式:
暂无
Satellite Introduction
Starlink 计划是 SpaceX 推出的全球卫星互联网项目,通过发射低轨道卫星,为全球尤其是偏远地区提供高速、低延迟的互联网服务。自 2019 年起,Starlink 已部署数千颗卫星,旨在缩小全球数字鸿沟,推动互联网普及。该项目还为军事、航空等行业提供通信支持,带来广泛经济效益。
2D Orbit Map
3D Orbit Map
Orbit Altitude Analysis Chart
Orbit Inclination Analysis Chart
Orbit Comprehensive Analysis Chart
View Comprehensive Chart
Conjunction Data List
Event ID Objects TCA Miss Dist (km) Collision Risk Probability Collision Risk Index (CRI) Action
CDM_260913-190906-364606-414321
2026-09-13T
19:09:25+0000
0.305 km
远距离
3.370079E-4 高风险 0.86
CDM_260913-191205-722706-414321
2026-09-13T
19:12:31+0000
0.377 km
远距离
1.808908E-4 高风险 0.8
CDM_260913-010305-558006-414321
2026-09-13T
01:03:33+0000
0.676 km
远距离
6.216936E-5 中风险 0.71
CDM_260913-151705-722706-414321
2026-09-13T
15:17:08+0000
0.916 km
远距离
1.437272E-5 中风险 0.58
CDM_260913-124905-558006-414321
2026-09-13T
12:49:42+0000
1.158 km
极远距离
1.042802E-5 中风险 0.55
CDM_260912-232905-558006-414321
2026-09-12T
23:29:24+0000
1.300 km
极远距离
7.014391E-6 低风险 0.52
CDM_260913-204306-364606-414321
2026-09-13T
20:43:34+0000
1.390 km
极远距离
4.757971E-6 低风险 0.49
CDM_260913-142305-558006-414321
2026-09-13T
14:23:52+0000
1.519 km
极远距离
4.201868E-6 低风险 0.47
CDM_260913-173506-364606-414321
2026-09-13T
17:35:16+0000
1.840 km
极远距离
2.049193E-6 低风险 0.41
CDM_260913-023705-558006-414322
2026-09-13T
02:37:42+0000
2.696 km
极远距离
1.074003E-6 低风险 0.36
Miss Distance Evolution Trend with All Objects
Collision Probability Evolution Trend with All Objects